Starlink 4070

operational
NORAD ID: 52664 Int'l Des: 2022-053 Owner: SPXS Country: US Constellation: starlink
LEOCIRCULAR

Über Starlink 4070

Beschreibung wird geladen...

Live-Position

3D-Globus wird geladen...

Nächste Überflüge

Höhenverlauf

Altitude vs Time

uPlot chart will show altitude changes over time

Zweizeiliger Elementsatz

1 52664U 22053J 25349.88650035 .00003891 00000-0 26258-3 0 9990
2 52664 53.2176 170.3291 0001675 92.6365 267.4819 15.08818055198390
Epoch: 15. Dez. 2025 • Age: 23 hours

Aktueller Status

Höhe 543.1 km
Geschwindigkeit 7.60 km/s
Subsatellitenpunkt 43.55°N, 85.62°W
Startdatum 18. Mai 2022
Alter 3.5 years
Typ internet

Technische Details

Klassifizierung Payload
Masse 297.00 kg
Trockenmasse 275.00 kg
Gesamtmasse 297.00 kg
Länge 0.20 m
Durchmesser 2.80 m
Spannweite 9.00 m
Form Box + pan
Hersteller SPXS
Bus-Typ Starlink
Phasenstatus In Orbit
Besitzer/Staat SPXS/US

Große Konstellationen

Loading constellations...